Tracking 19219 objects as of 19-Jul-2018
HD Live streaming from Space Station
objects crossing your sky now

FENGYUN 1C DEB

Track FENGYUN 1C DEB now!
10-day predictions


NORAD ID: 30151
Int'l Code: 1999-025TG
Perigee: 847.1 km
Apogee: 1,092.8 km
Inclination: 99.3 °
Period: 104.3 minutes
Semi major axis: 7340 km
RCS: 0.0881 m2 (small)
Launch date: May 10, 1999
Source: People's Republic of China (PRC)
Launch site: Taiyaun Space Center, China (TSC)

Note: This is SATELLITE DEBRIS
aabbcc
Your satellite tracking list
Your tracking list is empty




NASA's NSSDC Master Catalog

Two Line Element Set (TLE):
1 30151U 99025TG  18200.63691267 +.00000232 +00000-0 +23946-3 0  9990
2 30151 099.3004 246.7594 0167344 287.8294 192.9147 13.80292176579169
Source of the keplerian elements: AFSPC